ITY325 LIRF-EGKK

Flight info

Callsign ITY325
Flight time 1h 51m
Altitude 40000
Route PODOX DCT TOBGA DCT DOBIM DCT PIGOS DCT BARSO DCT OKTET DCT GIPNO DCT BULOL DCT IDAVO DCT BAGBI DCT SIZZA DCT LAULY DCT BRY DCT CLM DCT KOPOR DCT KESAX DCT KUNAV
Aircraft B748/H-SDE3FGHIM1M2RWXY/LB1

Departure

Time 2026-05-05 18:50
Airport Rome–Fiumicino Leonardo da Vinci International Airport (LIRF)

Arrival

Time 2026-05-05 20:42
Airport London Gatwick Airport (EGKK)
Time Latitude Longitude Altitude Speed Heading
2026-05-05 18:34 41.79740 12.25923 28 ft 0 kts 159°
2026-05-05 18:40 41.79770 12.25908 28 ft 9 kts 159°
2026-05-05 18:40 41.79835 12.25875 26 ft 7 kts 149°
2026-05-05 18:40 41.79843 12.25869 26 ft 2 kts 146°
2026-05-05 18:40 41.79820 12.25890 26 ft 4 kts 134°
2026-05-05 18:41 41.79813 12.25913 27 ft 3 kts 108°
2026-05-05 18:41 41.79816 12.25931 28 ft 2 kts 66°
2026-05-05 18:41 41.79828 12.25941 28 ft 2 kts 22°
2026-05-05 18:41 41.79870 12.25953 28 ft 10 kts 11°
2026-05-05 18:42 41.79903 12.25936 28 ft 3 kts 296°
2026-05-05 18:42 41.79927 12.25884 28 ft 8 kts 318°
2026-05-05 18:42 41.79969 12.25884 27 ft 9 kts 21°
2026-05-05 18:42 41.80037 12.25928 27 ft 12 kts 26°
2026-05-05 18:43 41.80125 12.25984 29 ft 16 kts 25°
2026-05-05 18:43 41.80236 12.26048 27 ft 19 kts 22°
2026-05-05 18:43 41.80364 12.26121 27 ft 21 kts 24°
2026-05-05 18:43 41.80472 12.26170 23 ft 14 kts
2026-05-05 18:44 41.80519 12.26218 26 ft 9 kts 61°
2026-05-05 18:44 41.80546 12.26304 28 ft 12 kts 70°
2026-05-05 18:44 41.80576 12.26418 30 ft 14 kts 70°
2026-05-05 18:44 41.80615 12.26562 28 ft 18 kts 69°
2026-05-05 18:45 41.80664 12.26733 26 ft 21 kts 70°
2026-05-05 18:45 41.80709 12.26907 21 ft 17 kts 71°
2026-05-05 18:45 41.80753 12.27026 22 ft 11 kts 35°
2026-05-05 18:45 41.80821 12.27033 22 ft 10 kts 340°
2026-05-05 18:46 41.80869 12.27010 23 ft 1 kts 340°
2026-05-05 18:46 41.80870 12.27010 22 ft 0 kts 340°
2026-05-05 18:47 41.80883 12.27004 21 ft 5 kts 340°
2026-05-05 18:47 41.80932 12.26978 24 ft 9 kts 332°
2026-05-05 18:48 41.80950 12.26933 23 ft 6 kts 276°
2026-05-05 18:48 41.80939 12.26871 22 ft 7 kts 248°
2026-05-05 18:48 41.80938 12.26869 22 ft 0 kts 248°
2026-05-05 18:49 41.80913 12.26782 21 ft 45 kts 248°
2026-05-05 18:49 41.80684 12.25958 29 ft 142 kts 249°
2026-05-05 18:50 41.80256 12.24352 117 ft 217 kts 249°
2026-05-05 18:50 41.79778 12.22405 1347 ft 227 kts 248°
2026-05-05 18:50 41.79358 12.20359 2518 ft 237 kts 258°
2026-05-05 18:50 41.79228 12.18111 3294 ft 246 kts 264°
2026-05-05 18:51 41.79182 12.15791 4102 ft 251 kts 265°
2026-05-05 18:51 41.79137 12.13421 4785 ft 257 kts 265°
2026-05-05 18:51 41.79072 12.10987 5181 ft 263 kts 264°
2026-05-05 18:51 41.79069 12.08520 5601 ft 266 kts 269°
2026-05-05 18:52 41.79058 12.06053 6272 ft 264 kts 266°
2026-05-05 18:52 41.79023 12.03552 7076 ft 270 kts 267°
2026-05-05 18:52 41.79018 12.01032 8009 ft 272 kts 267°
2026-05-05 18:52 41.79018 11.98537 8885 ft 273 kts 268°
2026-05-05 18:53 41.79015 11.95973 9733 ft 275 kts 267°
2026-05-05 18:53 41.79006 11.93401 10540 ft 278 kts 267°
2026-05-05 18:53 41.78993 11.90744 11055 ft 293 kts 268°
2026-05-05 18:53 41.78985 11.87939 11483 ft 310 kts 268°
2026-05-05 18:54 41.78977 11.84959 11898 ft 329 kts 268°
2026-05-05 18:54 41.78966 11.81803 12322 ft 348 kts 268°
2026-05-05 18:54 41.78953 11.78487 12928 ft 362 kts 268°
2026-05-05 18:54 41.78938 11.75067 13773 ft 369 kts 268°
2026-05-05 18:55 41.78923 11.71652 14567 ft 375 kts 268°
2026-05-05 18:55 41.78906 11.68135 15365 ft 380 kts 268°
2026-05-05 18:55 41.78888 11.64573 16223 ft 384 kts 268°
2026-05-05 18:55 41.78879 11.60966 17079 ft 388 kts 270°
2026-05-05 18:56 41.79287 11.57360 17898 ft 396 kts 283°
2026-05-05 18:56 41.80286 11.53887 18659 ft 404 kts 295°
2026-05-05 18:56 41.81864 11.50728 19354 ft 413 kts 307°
2026-05-05 18:56 41.83785 11.47825 20026 ft 418 kts 308°
2026-05-05 18:57 41.85751 11.44917 20690 ft 423 kts 309°
2026-05-05 18:57 41.87734 11.41984 21335 ft 427 kts 309°
2026-05-05 18:57 41.89724 11.39005 21986 ft 430 kts 308°
2026-05-05 18:57 41.91703 11.36033 22604 ft 434 kts 308°
2026-05-05 18:58 41.93758 11.32960 23222 ft 438 kts 309°
2026-05-05 18:58 41.95777 11.29944 23781 ft 442 kts 308°
2026-05-05 18:58 41.97835 11.26859 24264 ft 445 kts 308°
2026-05-05 18:58 41.99899 11.23756 24775 ft 447 kts 308°
2026-05-05 18:59 42.01939 11.20689 25268 ft 449 kts 307°
2026-05-05 18:59 42.04023 11.17557 25788 ft 451 kts 307°
2026-05-05 18:59 42.06120 11.14400 26295 ft 452 kts 307°
2026-05-05 18:59 42.08213 11.11244 26834 ft 454 kts 307°
2026-05-05 19:00 42.10333 11.08045 27346 ft 456 kts 307°
2026-05-05 19:00 42.12447 11.04851 27876 ft 458 kts 306°
2026-05-05 19:00 42.14582 11.01623 28380 ft 460 kts 306°
2026-05-05 19:00 42.16713 10.98397 28895 ft 462 kts 306°
2026-05-05 19:01 42.18830 10.95187 29421 ft 464 kts 306°
2026-05-05 19:01 42.20976 10.91932 29930 ft 466 kts 306°
2026-05-05 19:01 42.23134 10.88655 30398 ft 468 kts 306°
2026-05-05 19:01 42.25299 10.85362 30804 ft 470 kts 305°
2026-05-05 19:02 42.27476 10.82048 31204 ft 472 kts 305°
2026-05-05 19:02 42.29649 10.78738 31734 ft 470 kts 305°
2026-05-05 19:02 42.31816 10.75434 32319 ft 468 kts 305°
2026-05-05 19:02 42.33974 10.72137 32821 ft 467 kts 304°
2026-05-05 19:03 42.36124 10.68846 33344 ft 465 kts 304°
2026-05-05 19:03 42.38264 10.65570 33805 ft 464 kts 304°
2026-05-05 19:03 42.40377 10.62333 34203 ft 463 kts 304°
2026-05-05 19:03 42.42510 10.59061 34592 ft 462 kts 304°
2026-05-05 19:04 42.44632 10.55802 34954 ft 462 kts 304°
2026-05-05 19:04 42.46763 10.52522 35294 ft 461 kts 304°
2026-05-05 19:04 42.48882 10.49261 35623 ft 461 kts 304°
2026-05-05 19:04 42.51006 10.45987 35930 ft 460 kts 304°
2026-05-05 19:05 42.53114 10.42735 36242 ft 460 kts 304°
2026-05-05 19:05 42.55227 10.39471 36534 ft 460 kts 304°
2026-05-05 19:05 42.57339 10.36204 36762 ft 460 kts 304°
2026-05-05 19:05 42.59453 10.32932 37022 ft 460 kts 304°
2026-05-05 19:06 42.61525 10.29721 37258 ft 460 kts 305°
2026-05-05 19:06 42.63660 10.26409 37485 ft 460 kts 305°
2026-05-05 19:06 42.65736 10.23184 37712 ft 459 kts 305°
2026-05-05 19:06 42.67838 10.19914 37960 ft 459 kts 305°
2026-05-05 19:07 42.69935 10.16651 38168 ft 459 kts 305°
2026-05-05 19:07 42.72041 10.13368 38378 ft 459 kts 305°
2026-05-05 19:07 42.74132 10.10105 38577 ft 458 kts 305°
2026-05-05 19:07 42.76233 10.06824 38733 ft 458 kts 305°
2026-05-05 19:08 42.78325 10.03552 38874 ft 458 kts 305°
2026-05-05 19:08 42.80410 10.00288 39024 ft 458 kts 305°
2026-05-05 19:08 42.84606 9.93707 39199 ft 461 kts 305°
2026-05-05 19:09 42.86710 9.90403 39332 ft 461 kts 305°
2026-05-05 19:09 42.88812 9.87092 39464 ft 461 kts 303°
2026-05-05 19:09 42.90697 9.83690 39593 ft 457 kts 301°
2026-05-05 19:09 42.92593 9.80170 39673 ft 460 kts 301°
2026-05-05 19:10 42.96005 9.72816 39715 ft 457 kts 289°
2026-05-05 19:10 42.98392 9.64785 39740 ft 460 kts 287°
2026-05-05 19:11 42.99585 9.60724 39561 ft 460 kts 287°
2026-05-05 19:11 43.00773 9.56659 39278 ft 461 kts 287°
2026-05-05 19:11 43.01965 9.52575 38997 ft 461 kts 287°
2026-05-05 19:11 43.03153 9.48504 38752 ft 461 kts 287°
2026-05-05 19:12 43.04341 9.44432 38563 ft 460 kts 286°
2026-05-05 19:12 43.05523 9.40368 38285 ft 460 kts 286°
2026-05-05 19:12 43.06687 9.36352 38017 ft 459 kts 286°
2026-05-05 19:12 43.07863 9.32292 37968 ft 460 kts 286°
2026-05-05 19:13 43.10231 9.24102 37960 ft 464 kts 286°
2026-05-05 19:13 43.12604 9.15873 37965 ft 464 kts 286°
2026-05-05 19:14 43.14967 9.07644 37964 ft 465 kts 285°
2026-05-05 19:14 43.17326 8.99408 37946 ft 461 kts 285°
2026-05-05 19:15 43.19652 8.91254 37942 ft 458 kts 285°
2026-05-05 19:15 43.21967 8.83116 37947 ft 458 kts 285°
2026-05-05 19:16 43.24276 8.74974 37943 ft 458 kts 285°
2026-05-05 19:16 43.26584 8.66802 37951 ft 463 kts 285°
2026-05-05 19:17 43.28899 8.58590 37952 ft 464 kts 285°
2026-05-05 19:17 43.31220 8.50320 37951 ft 464 kts 285°
2026-05-05 19:18 43.33544 8.42013 37947 ft 466 kts 285°
2026-05-05 19:18 43.35864 8.33697 37975 ft 466 kts 285°
2026-05-05 19:19 43.38192 8.25318 37938 ft 469 kts 285°
2026-05-05 19:19 43.40519 8.16924 37942 ft 470 kts 285°
2026-05-05 19:20 43.42826 8.08560 37936 ft 470 kts 285°
2026-05-05 19:20 43.45141 8.00148 37938 ft 470 kts 285°
2026-05-05 19:21 43.47454 7.91709 37933 ft 472 kts 285°
2026-05-05 19:21 43.49768 7.83242 37933 ft 472 kts 285°
2026-05-05 19:22 43.52059 7.74826 37934 ft 472 kts 285°
2026-05-05 19:22 43.54355 7.66365 37929 ft 472 kts 285°
2026-05-05 19:23 43.56648 7.57885 37967 ft 472 kts 285°
2026-05-05 19:23 43.58946 7.49353 37946 ft 476 kts 285°
2026-05-05 19:24 43.61721 7.40966 37953 ft 488 kts 297°
2026-05-05 19:24 43.66213 7.33782 37959 ft 504 kts 314°
2026-05-05 19:25 43.72014 7.28163 37950 ft 511 kts 320°
2026-05-05 19:25 43.77954 7.22726 37950 ft 512 kts 320°
2026-05-05 19:26 43.83859 7.17289 37956 ft 512 kts 320°
2026-05-05 19:26 43.89782 7.11834 37934 ft 513 kts 320°
2026-05-05 19:27 43.95709 7.06355 37973 ft 511 kts 320°
2026-05-05 19:27 44.01633 7.00867 37972 ft 511 kts 320°
2026-05-05 19:28 44.06559 6.96295 37970 ft 512 kts 320°
2026-05-05 19:28 44.12488 6.90778 37958 ft 512 kts 320°
2026-05-05 19:29 44.19365 6.84358 37954 ft 512 kts 320°
2026-05-05 19:29 44.24337 6.79702 37957 ft 516 kts 321°
2026-05-05 19:30 44.30298 6.74115 37955 ft 517 kts 320°
2026-05-05 19:30 44.36224 6.68541 37951 ft 517 kts 320°
2026-05-05 19:31 44.42178 6.62929 37961 ft 516 kts 320°
2026-05-05 19:31 44.48144 6.57286 37951 ft 518 kts 321°
2026-05-05 19:32 44.54125 6.51628 37948 ft 518 kts 321°
2026-05-05 19:32 44.60090 6.45957 37979 ft 518 kts 321°
2026-05-05 19:33 44.66057 6.40278 37957 ft 518 kts 321°
2026-05-05 19:33 44.72032 6.34573 37951 ft 519 kts 321°
2026-05-05 19:34 44.78000 6.28861 37949 ft 519 kts 321°
2026-05-05 19:35 44.86911 6.20307 37918 ft 516 kts 321°
2026-05-05 19:35 44.92807 6.14661 37955 ft 517 kts 321°
2026-05-05 19:36 44.98761 6.08903 37932 ft 518 kts 321°
2026-05-05 19:36 45.04702 6.03160 37930 ft 519 kts 321°
2026-05-05 19:37 45.10672 5.97370 37920 ft 520 kts 321°
2026-05-05 19:37 45.16600 5.91603 37914 ft 520 kts 321°
2026-05-05 19:38 45.22555 5.85797 37907 ft 519 kts 321°
2026-05-05 19:38 45.28515 5.79970 37914 ft 521 kts 321°
2026-05-05 19:39 45.34503 5.74103 37906 ft 523 kts 321°
2026-05-05 19:39 45.40485 5.68224 37905 ft 523 kts 321°
2026-05-05 19:40 45.46464 5.62333 37925 ft 524 kts 321°
2026-05-05 19:40 45.52462 5.56409 37922 ft 523 kts 321°
2026-05-05 19:41 45.58446 5.50737 37913 ft 526 kts 324°
2026-05-05 19:41 45.64531 5.45295 37911 ft 525 kts 324°
2026-05-05 19:42 45.70765 5.39719 37889 ft 525 kts 324°
2026-05-05 19:42 45.76922 5.34196 37887 ft 525 kts 324°
2026-05-05 19:43 45.83094 5.28642 37888 ft 525 kts 324°
2026-05-05 19:43 45.89315 5.23033 37886 ft 526 kts 324°
2026-05-05 19:44 45.95483 5.17455 37893 ft 526 kts 324°
2026-05-05 19:44 46.01692 5.11823 37889 ft 529 kts 324°
2026-05-05 19:45 46.08170 5.06894 37875 ft 532 kts 333°
2026-05-05 19:45 46.14941 5.02624 37881 ft 530 kts 333°
2026-05-05 19:46 46.21680 4.98301 37881 ft 529 kts 333°
2026-05-05 19:46 46.28366 4.94033 37860 ft 529 kts 333°
2026-05-05 19:47 46.35039 4.89612 37879 ft 527 kts 330°
2026-05-05 19:47 46.41476 4.84775 37885 ft 527 kts 331°
2026-05-05 19:48 46.48085 4.80173 37880 ft 526 kts 331°
2026-05-05 19:48 46.54630 4.75381 37879 ft 527 kts 331°
2026-05-05 19:49 46.61211 4.70677 37879 ft 527 kts 331°
2026-05-05 19:49 46.67767 4.65910 37872 ft 527 kts 331°
2026-05-05 19:50 46.74335 4.61156 37872 ft 527 kts 331°
2026-05-05 19:50 46.80900 4.56376 37873 ft 527 kts 331°
2026-05-05 19:51 46.87453 4.51595 37873 ft 527 kts 331°
2026-05-05 19:51 46.93662 4.47054 37870 ft 527 kts 331°
2026-05-05 19:52 47.00256 4.42217 37879 ft 528 kts 331°
2026-05-05 19:52 47.06832 4.37381 37871 ft 528 kts 331°
2026-05-05 19:53 47.13391 4.32542 37874 ft 528 kts 331°
2026-05-05 19:53 47.19951 4.27691 37871 ft 528 kts 331°
2026-05-05 19:54 47.26486 4.22844 37869 ft 528 kts 331°
2026-05-05 19:54 47.33038 4.17971 37863 ft 527 kts 331°
2026-05-05 19:55 47.39592 4.13083 37848 ft 527 kts 331°
2026-05-05 19:55 47.46151 4.08178 37851 ft 528 kts 331°
2026-05-05 19:56 47.52704 4.03263 37852 ft 528 kts 331°
2026-05-05 19:56 47.59244 3.98344 37852 ft 528 kts 331°
2026-05-05 19:57 47.65563 3.93578 37851 ft 528 kts 331°
2026-05-05 19:57 47.72112 3.88625 37847 ft 528 kts 331°
2026-05-05 19:58 47.78666 3.83653 37846 ft 528 kts 331°
2026-05-05 19:58 47.85209 3.78676 37842 ft 528 kts 331°
2026-05-05 19:59 47.91740 3.73695 37839 ft 528 kts 331°
2026-05-05 19:59 47.98292 3.68682 37845 ft 528 kts 331°
2026-05-05 20:00 48.04824 3.63671 37838 ft 528 kts 331°
2026-05-05 20:00 48.11342 3.58656 37836 ft 528 kts 331°
2026-05-05 20:01 48.17857 3.53629 37834 ft 528 kts 331°
2026-05-05 20:01 48.24386 3.48577 37834 ft 528 kts 331°
2026-05-05 20:02 48.30926 3.43501 37830 ft 528 kts 331°
2026-05-05 20:02 48.37443 3.38429 37818 ft 527 kts 331°
2026-05-05 20:03 48.43962 3.33340 37818 ft 527 kts 331°
2026-05-05 20:03 48.50479 3.28237 37821 ft 527 kts 331°
2026-05-05 20:04 48.56979 3.23134 37818 ft 527 kts 331°
2026-05-05 20:04 48.63437 3.18047 37817 ft 527 kts 331°
2026-05-05 20:05 48.69938 3.12915 37819 ft 527 kts 331°
2026-05-05 20:05 48.76437 3.07766 37820 ft 527 kts 331°
2026-05-05 20:06 48.82944 3.02598 37821 ft 527 kts 331°
2026-05-05 20:06 48.89282 2.97147 37823 ft 527 kts 329°
2026-05-05 20:07 48.95668 2.91630 37826 ft 527 kts 329°
2026-05-05 20:07 49.02022 2.86015 37826 ft 527 kts 329°
2026-05-05 20:08 49.08397 2.80434 37836 ft 528 kts 329°
2026-05-05 20:08 49.14725 2.74837 37836 ft 528 kts 329°
2026-05-05 20:09 49.21038 2.69260 37837 ft 528 kts 329°
2026-05-05 20:09 49.27394 2.63615 37845 ft 527 kts 329°
2026-05-05 20:10 49.33593 2.58100 37847 ft 528 kts 329°
2026-05-05 20:10 49.39943 2.52431 37851 ft 528 kts 329°
2026-05-05 20:11 49.46287 2.46750 37861 ft 527 kts 329°
2026-05-05 20:11 49.52545 2.40853 37886 ft 527 kts 322°
2026-05-05 20:12 49.58077 2.33460 37868 ft 525 kts 315°
2026-05-05 20:12 49.63532 2.25964 37867 ft 526 kts 320°
2026-05-05 20:13 49.69132 2.18702 37862 ft 525 kts 316°
2026-05-05 20:13 49.74584 2.11262 37884 ft 525 kts 318°
2026-05-05 20:14 49.80116 2.03950 37884 ft 523 kts 317°
2026-05-05 20:14 49.85587 1.96520 37888 ft 522 kts 318°
2026-05-05 20:15 49.91084 1.89146 37894 ft 521 kts 317°
2026-05-05 20:15 49.96541 1.81732 37908 ft 522 kts 317°
2026-05-05 20:16 50.01078 1.75585 37896 ft 516 kts 317°
2026-05-05 20:16 50.03757 1.71945 37789 ft 511 kts 317°
2026-05-05 20:16 50.06420 1.68308 37503 ft 509 kts 317°
2026-05-05 20:16 50.09089 1.64669 37229 ft 506 kts 318°
2026-05-05 20:17 50.11742 1.61086 36901 ft 506 kts 318°
2026-05-05 20:17 50.14399 1.57501 36468 ft 505 kts 318°
2026-05-05 20:17 50.17047 1.53897 35952 ft 505 kts 318°
2026-05-05 20:17 50.19691 1.50286 35336 ft 506 kts 318°
2026-05-05 20:18 50.22350 1.46660 34655 ft 507 kts 318°
2026-05-05 20:18 50.24968 1.43092 33985 ft 490 kts 319°
2026-05-05 20:18 50.27482 1.39656 33177 ft 472 kts 319°
2026-05-05 20:18 50.29914 1.36321 32357 ft 459 kts 319°
2026-05-05 20:19 50.32292 1.33058 31460 ft 450 kts 319°
2026-05-05 20:19 50.34625 1.29856 30563 ft 441 kts 319°
2026-05-05 20:19 50.36905 1.26723 29663 ft 430 kts 319°
2026-05-05 20:19 50.39116 1.23678 28665 ft 418 kts 319°
2026-05-05 20:20 50.41276 1.20698 27720 ft 409 kts 319°
2026-05-05 20:20 50.43387 1.17784 26783 ft 400 kts 319°
2026-05-05 20:20 50.45451 1.14932 25893 ft 391 kts 319°
2026-05-05 20:20 50.47450 1.12165 25025 ft 385 kts 319°
2026-05-05 20:21 50.49466 1.09373 24226 ft 377 kts 319°
2026-05-05 20:21 50.51379 1.06698 23463 ft 371 kts 316°
2026-05-05 20:21 50.53129 1.03759 22564 ft 365 kts 314°
2026-05-05 20:21 50.54865 1.00873 21761 ft 360 kts 314°
2026-05-05 20:22 50.56575 0.98029 20993 ft 355 kts 314°
2026-05-05 20:22 50.58247 0.95198 20268 ft 351 kts 314°
2026-05-05 20:22 50.59895 0.92398 19647 ft 347 kts 314°
2026-05-05 20:22 50.61533 0.89633 19045 ft 343 kts 314°
2026-05-05 20:23 50.63147 0.86908 18464 ft 339 kts 314°
2026-05-05 20:23 50.64748 0.84198 17821 ft 336 kts 314°
2026-05-05 20:23 50.66333 0.81504 17152 ft 333 kts 314°
2026-05-05 20:23 50.67859 0.78776 16492 ft 330 kts 309°
2026-05-05 20:24 50.69280 0.75950 15865 ft 328 kts 311°
2026-05-05 20:24 50.70730 0.73199 15246 ft 325 kts 311°
2026-05-05 20:24 50.72156 0.70440 14618 ft 323 kts 310°
2026-05-05 20:24 50.73555 0.67672 14025 ft 321 kts 310°
2026-05-05 20:25 50.74940 0.64940 13391 ft 318 kts 310°
2026-05-05 20:25 50.76320 0.62235 12735 ft 314 kts 310°
2026-05-05 20:25 50.77680 0.59567 12090 ft 310 kts 310°
2026-05-05 20:25 50.79025 0.56917 11457 ft 305 kts 310°
2026-05-05 20:26 50.80347 0.54319 10833 ft 302 kts 310°
2026-05-05 20:26 50.81651 0.51749 10232 ft 297 kts 310°
2026-05-05 20:26 50.82953 0.49178 9733 ft 295 kts 310°
2026-05-05 20:26 50.84218 0.46678 9268 ft 293 kts 310°
2026-05-05 20:27 50.85484 0.44175 8775 ft 289 kts 310°
2026-05-05 20:27 50.86720 0.41732 8343 ft 287 kts 310°
2026-05-05 20:27 50.87974 0.39248 7884 ft 284 kts 310°
2026-05-05 20:27 50.89188 0.36842 7448 ft 282 kts 310°
2026-05-05 20:28 50.90419 0.34400 7062 ft 278 kts 310°
2026-05-05 20:28 50.91621 0.32013 7008 ft 278 kts 310°
2026-05-05 20:28 50.92793 0.29683 7009 ft 270 kts 310°
2026-05-05 20:28 50.93964 0.27353 7010 ft 269 kts 310°
2026-05-05 20:29 50.95098 0.24995 7011 ft 269 kts 301°
2026-05-05 20:29 50.95803 0.22230 7055 ft 271 kts 289°
2026-05-05 20:29 50.96308 0.19339 7064 ft 273 kts 287°
2026-05-05 20:29 50.96771 0.16410 7063 ft 273 kts 286°
2026-05-05 20:30 50.97220 0.13492 6980 ft 272 kts 286°
2026-05-05 20:30 50.97664 0.10586 6719 ft 271 kts 286°
2026-05-05 20:30 50.98114 0.07626 6477 ft 279 kts 286°
2026-05-05 20:30 50.98569 0.04628 6219 ft 280 kts 286°
2026-05-05 20:31 50.99022 0.01621 5958 ft 279 kts 286°
2026-05-05 20:31 50.99465 -0.01330 5683 ft 279 kts 285°
2026-05-05 20:31 50.99910 -0.04272 5416 ft 266 kts 286°
2026-05-05 20:31 51.00329 -0.07054 5056 ft 255 kts 286°
2026-05-05 20:32 51.00740 -0.09781 4518 ft 253 kts 286°
2026-05-05 20:32 51.01150 -0.12492 3987 ft 251 kts 286°
2026-05-05 20:32 51.01559 -0.15161 3501 ft 245 kts 285°
2026-05-05 20:32 51.01965 -0.17750 3082 ft 237 kts 286°
2026-05-05 20:33 51.02359 -0.20222 3008 ft 231 kts 286°
2026-05-05 20:33 51.02718 -0.22719 3010 ft 232 kts 277°
2026-05-05 20:33 51.02730 -0.25281 3011 ft 233 kts 268°
2026-05-05 20:33 51.02559 -0.27848 3009 ft 233 kts 263°
2026-05-05 20:34 51.02305 -0.30403 3013 ft 234 kts 262°
2026-05-05 20:34 51.02041 -0.32947 3013 ft 233 kts 262°
2026-05-05 20:34 51.01780 -0.35426 3012 ft 234 kts 262°
2026-05-05 20:34 51.01585 -0.38052 3012 ft 233 kts 272°
2026-05-05 20:35 51.01741 -0.40596 3011 ft 232 kts 279°
2026-05-05 20:35 51.01987 -0.43137 3011 ft 232 kts 281°
2026-05-05 20:35 51.02246 -0.45662 3001 ft 232 kts 281°
2026-05-05 20:35 51.02559 -0.48178 2997 ft 231 kts 290°
2026-05-05 20:36 51.03284 -0.50426 3006 ft 229 kts 308°
2026-05-05 20:36 51.04417 -0.52176 3009 ft 227 kts 327°
2026-05-05 20:36 51.05789 -0.53337 3014 ft 226 kts 337°
2026-05-05 20:36 51.07275 -0.54098 3020 ft 225 kts 353°
2026-05-05 20:37 51.08832 -0.54057 3009 ft 224 kts 12°
2026-05-05 20:37 51.10223 -0.53042 3011 ft 224 kts 42°
2026-05-05 20:37 51.11037 -0.50975 3027 ft 225 kts 74°
2026-05-05 20:37 51.11069 -0.48496 3022 ft 225 kts 93°
2026-05-05 20:38 51.11093 -0.46008 3019 ft 225 kts 81°
2026-05-05 20:38 51.11392 -0.43580 3025 ft 225 kts 76°
2026-05-05 20:38 51.11721 -0.41202 2867 ft 212 kts 76°
2026-05-05 20:38 51.12029 -0.38998 2600 ft 196 kts 77°
2026-05-05 20:39 51.12316 -0.36937 2332 ft 185 kts 77°
2026-05-05 20:39 51.12592 -0.34964 2080 ft 181 kts 77°
2026-05-05 20:39 51.12861 -0.33036 1844 ft 176 kts 77°
2026-05-05 20:39 51.13124 -0.31155 1607 ft 173 kts 78°
2026-05-05 20:40 51.13385 -0.29283 1365 ft 173 kts 78°
2026-05-05 20:40 51.13636 -0.27478 1149 ft 172 kts 77°
2026-05-05 20:40 51.13882 -0.25707 921 ft 157 kts 77°
2026-05-05 20:40 51.14114 -0.24033 689 ft 153 kts 77°
2026-05-05 20:41 51.14341 -0.22405 480 ft 149 kts 77°
2026-05-05 20:41 51.14564 -0.20812 295 ft 149 kts 77°
2026-05-05 20:41 51.14775 -0.19303 221 ft 123 kts 78°
2026-05-05 20:41 51.14922 -0.18216 218 ft 82 kts 78°
2026-05-05 20:42 51.15001 -0.17676 225 ft 34 kts 77°
2026-05-05 20:42 51.15039 -0.17414 225 ft 17 kts 79°
2026-05-05 20:42 51.15062 -0.17286 218 ft 6 kts 83°
2026-05-05 20:42 51.15072 -0.17217 219 ft 5 kts 76°
2026-05-05 20:43 51.15078 -0.17158 219 ft 7 kts 80°
2026-05-05 20:43 51.15094 -0.17032 220 ft 18 kts 78°
2026-05-05 20:43 51.15121 -0.16822 219 ft 20 kts 78°
2026-05-05 20:43 51.15142 -0.16689 222 ft 10 kts 84°
2026-05-05 20:44 51.15148 -0.16639 215 ft 3 kts 79°